period_start,C,m1,H,J0,J1,J2,J3,J4,J5,JA,JB,JC,JD,JJ,JK,JN,#
2013-08-09 00:00:25,0.01,0.05,0.00,27.21,30.47,31.87,5.97,31.58,1013.67,2038.99,3408.01,3327.99,3621.01,350.75,319.19,5.92,0000 0000 0000 0000 000000
2013-08-09 00:01:25,0.01,0.05,0.00,27.22,30.47,31.89,5.85,31.50,1013.66,2038.98,3408.00,3327.99,3621.03,350.08,318.55,5.93,0000 0000 0000 0000 000000
2013-08-09 00:02:25,0.01,0.05,0.00,27.21,30.47,31.88,5.88,31.67,1013.64,2038.98,3408.00,3327.98,3621.01,349.64,318.40,5.93,0000 0000 0000 0000 000000
2013-08-09 00:03:25,0.00,0.05,0.00,27.23,30.47,31.91,5.88,31.58,1013.60,2038.97,3408.00,3327.96,3621.00,351.47,319.79,5.94,0000 0000 0000 0000 000000
2013-08-09 00:04:26,-0.01,0.05,0.00,27.22,30.46,31.87,5.91,31.63,1013.59,2038.96,3408.00,3327.97,3621.00,349.88,318.35,5.94,0000 0000 0000 0000 000000
2013-08-09 00:05:26,0.00,0.05,0.00,27.24,30.46,31.86,5.75,31.71,1013.57,2038.98,3408.00,3327.96,3621.00,348.60,317.27,5.95,0000 0000 0000 0000 000000
2013-08-09 00:06:26,0.00,0.05,0.00,27.26,30.46,31.84,5.72,31.50,1013.49,2038.97,3408.00,3327.90,3621.00,349.83,317.88,5.96,0000 0000 0000 0000 000000
2013-08-09 00:07:27,0.02,0.05,0.00,27.25,30.45,31.86,5.81,31.63,1013.48,2038.96,3408.00,3327.81,3621.00,349.68,317.91,5.96,0000 0000 0000 0000 000000
2013-08-09 00:08:27,0.01,0.05,0.00,27.22,30.45,31.88,5.90,31.54,1013.38,2038.97,3408.00,3327.87,3620.99,350.07,318.46,5.97,0000 0000 0000 0000 000000
2013-08-09 00:09:27,-0.01,0.05,0.00,27.25,30.45,31.87,5.82,31.46,1013.31,2038.97,3408.00,3327.85,3620.99,349.90,317.98,5.97,0000 0000 0000 0000 000000
2013-08-09 00:10:27,-0.00,0.05,0.00,27.26,30.45,31.84,5.83,31.38,1013.24,2038.97,3408.00,3327.85,3620.98,350.75,319.10,5.98,0000 0000 0000 0000 000000
2013-08-09 00:11:28,-0.01,0.05,0.00,27.25,30.45,31.90,5.93,31.38,1013.23,2038.96,3407.99,3327.86,3620.99,350.65,319.01,5.99,0000 0000 0000 0000 000000
2013-08-09 00:12:28,0.01,0.05,0.00,27.25,30.45,31.91,5.67,31.63,1013.23,2038.98,3407.94,3327.84,3620.99,348.52,317.17,5.99,0000 0000 0000 0000 000000
2013-08-09 00:13:28,0.03,0.05,0.00,27.25,30.45,31.91,5.86,31.79,1013.22,2038.99,3407.72,3327.70,3620.99,349.76,318.09,6.00,0000 0000 0000 0000 000000
2013-08-09 00:14:29,0.06,0.05,0.00,27.23,30.45,31.94,5.81,31.46,1013.23,2038.97,3407.53,3327.45,3620.99,350.19,318.45,6.00,0000 0000 0000 0000 000000
2013-08-09 00:15:29,0.03,0.05,0.00,27.19,30.45,32.00,5.86,31.63,1013.22,2038.97,3407.58,3327.45,3620.99,350.01,318.39,6.01,0000 0000 0000 0000 000000
2013-08-09 00:16:29,0.03,0.05,0.00,27.15,30.45,32.04,5.95,31.54,1013.23,2038.99,3407.55,3327.49,3620.97,350.76,319.37,6.01,0000 0000 0000 0000 000000
2013-08-09 00:17:30,-0.03,0.05,0.00,27.22,30.45,32.04,5.79,31.58,1013.21,2038.99,3407.61,3327.50,3620.97,349.00,317.59,6.02,0000 0000 0000 0000 000000
2013-08-09 00:18:30,0.01,0.05,0.00,27.29,30.45,32.01,5.80,31.42,1013.20,2038.99,3407.39,3327.37,3620.95,349.91,318.18,6.03,0000 0000 0000 0000 000000
2013-08-09 00:19:30,0.05,0.05,0.00,27.27,30.45,31.98,5.69,31.46,1013.21,2038.98,3407.21,3327.25,3620.90,348.49,316.91,6.03,0000 0000 0000 0000 000000
2013-08-09 00:20:30,0.06,0.05,0.00,27.28,30.45,31.94,5.76,31.58,1013.23,2038.99,3407.11,3327.14,3620.84,349.37,317.51,6.04,0000 0000 0000 0000 000000
2013-08-09 00:21:31,0.02,0.05,0.00,27.30,30.45,31.90,5.92,31.50,1013.22,2038.98,3407.07,3327.12,3620.81,350.76,319.04,6.04,0000 0000 0000 0000 000000
2013-08-09 00:22:31,0.02,0.05,0.00,27.35,30.45,31.88,5.92,31.79,1013.22,2038.97,3407.06,3327.08,3620.80,350.63,318.57,6.05,0000 0000 0000 0000 000000
2013-08-09 00:23:31,0.01,0.05,0.00,27.33,30.45,31.92,5.89,31.63,1013.22,2038.97,3407.04,3327.05,3620.72,350.07,318.30,6.06,0000 0000 0000 0000 000000
2013-08-09 00:24:31,0.01,0.05,0.00,27.29,30.45,31.90,5.95,31.71,1013.20,2038.97,3407.01,3327.04,3620.53,350.11,318.38,6.06,0000 0000 0000 0000 000000
2013-08-09 00:25:31,0.03,0.05,0.00,27.29,30.45,31.90,5.99,31.58,1013.21,2038.99,3407.02,3327.05,3620.56,351.09,318.67,6.07,0000 0000 0000 0000 000000
2013-08-09 00:26:32,0.00,0.05,0.00,27.29,30.45,31.91,6.00,31.63,1013.23,2038.98,3407.01,3327.05,3620.48,350.42,318.66,6.07,0000 0000 0000 0000 000000
2013-08-09 00:27:32,0.00,0.05,0.00,27.34,30.45,31.94,5.88,31.42,1013.22,2038.99,3407.00,3327.05,3620.51,350.40,318.77,6.08,0000 0000 0000 0000 000000
2013-08-09 00:28:32,-0.00,0.05,0.00,27.33,30.45,31.97,5.85,31.42,1013.21,2038.99,3407.01,3327.05,3620.63,350.42,318.16,6.08,0000 0000 0000 0000 000000
2013-08-09 00:29:33,0.00,0.05,0.00,27.33,30.45,31.97,5.78,31.50,1013.20,2038.99,3407.00,3327.02,3620.50,349.06,317.36,6.09,0000 0000 0000 0000 000000
2013-08-09 00:30:33,0.02,0.05,0.00,27.27,30.45,31.98,5.84,31.50,1013.22,2038.99,3407.00,3327.00,3620.38,349.95,318.25,6.10,0000 0000 0000 0000 000000
2013-08-09 00:31:33,0.01,0.05,0.00,27.30,30.45,31.97,5.91,31.42,1013.20,2038.99,3407.00,3327.00,3620.25,350.36,318.58,6.10,0000 0000 0000 0000 000000
2013-08-09 00:32:33,0.01,0.05,0.00,27.34,30.45,31.98,5.89,31.50,1013.20,2038.99,3407.00,3327.00,3620.14,348.91,317.67,6.11,0000 0000 0000 0000 000000
2013-08-09 00:33:34,0.01,0.05,0.00,27.33,30.45,31.97,5.75,31.54,1013.20,2038.99,3407.00,3327.00,3620.09,349.07,317.08,6.11,0000 0000 0000 0000 000000
2013-08-09 00:34:34,0.00,0.05,0.00,27.34,30.45,32.00,5.83,31.50,1013.20,2038.99,3407.00,3327.01,3620.11,350.14,317.90,6.12,0000 0000 0000 0000 000000
2013-08-09 00:35:34,0.00,0.05,0.00,27.38,30.45,31.99,5.98,31.75,1013.22,2038.99,3407.00,3327.01,3620.09,350.29,318.44,6.13,0000 0000 0000 0000 000000
2013-08-09 00:36:35,0.00,0.05,0.00,27.34,30.45,31.99,5.89,31.58,1013.22,2038.99,3407.00,3327.01,3620.05,350.04,318.25,6.13,0000 0000 0000 0000 000000
2013-08-09 00:37:35,0.00,0.05,0.00,27.37,30.45,31.99,5.91,31.50,1013.24,2038.99,3406.99,3327.00,3620.03,351.11,319.20,6.14,0000 0000 0000 0000 000000
2013-08-09 00:38:35,0.00,0.05,0.00,27.39,30.45,31.99,5.97,31.63,1013.22,2038.99,3406.68,3326.85,3619.87,351.58,319.81,6.14,0000 0000 0000 0000 000000
2013-08-09 00:39:35,0.17,0.05,0.00,27.40,30.46,32.00,5.78,31.33,1013.20,2038.99,3406.11,3326.17,3619.09,350.23,318.37,6.15,0000 0000 0000 0000 000000
2013-08-09 00:40:36,0.32,0.06,0.00,27.38,30.46,32.03,5.80,31.42,1013.24,2038.99,3405.47,3325.51,3618.41,349.98,318.17,6.16,0000 0000 0000 0000 000000
2013-08-09 00:41:36,0.26,0.06,0.00,27.35,30.46,32.02,5.90,31.50,1013.22,2038.98,3405.17,3325.18,3618.14,350.37,318.54,6.16,0000 0000 0000 0000 000000
2013-08-09 00:42:36,0.10,0.06,0.00,27.33,30.47,32.00,5.92,31.79,1013.24,2038.97,3405.06,3325.07,3618.04,350.09,318.65,6.17,0000 0000 0000 0000 000000
2013-08-09 00:43:36,0.04,0.06,0.00,27.38,30.47,32.03,5.79,31.71,1013.29,2038.98,3405.01,3325.01,3617.90,349.60,317.70,6.17,0000 0000 0000 0000 000000
2013-08-09 00:44:37,0.03,0.06,0.00,27.36,30.47,32.03,5.88,31.58,1013.33,2038.98,3404.66,3324.62,3617.41,349.96,318.41,6.18,0000 0000 0000 0000 000000
2013-08-09 00:45:37,0.23,0.06,0.00,27.38,30.47,32.02,5.90,31.71,1013.32,2038.98,3404.32,3324.23,3617.15,350.21,318.41,6.18,0000 0000 0000 0000 000000
2013-08-09 00:46:37,0.11,0.06,0.00,27.37,30.47,32.06,5.87,31.42,1013.26,2038.98,3404.13,3324.09,3617.03,350.58,318.73,6.19,0000 0000 0000 0000 000000
2013-08-09 00:47:37,0.06,0.06,0.00,27.37,30.47,32.06,5.86,31.54,1013.24,2038.98,3404.07,3324.03,3617.00,350.38,318.55,6.20,0000 0000 0000 0000 000000
2013-08-09 00:48:37,0.03,0.06,0.00,27.37,30.47,32.01,5.92,31.38,1013.22,2038.98,3404.06,3324.02,3616.98,350.26,318.72,6.20,0000 0000 0000 0000 000000
2013-08-09 00:49:37,0.00,0.06,0.00,27.35,30.47,32.02,5.94,31.33,1013.23,2038.98,3404.05,3324.01,3616.98,351.32,319.18,6.21,0000 0000 0000 0000 000000
2013-08-09 00:50:38,0.00,0.06,0.00,27.31,30.47,32.01,5.93,31.75,1013.21,2038.98,3404.02,3324.01,3616.98,350.41,318.61,6.21,0000 0000 0000 0000 000000
2013-08-09 00:51:38,0.00,0.06,0.00,27.34,30.47,32.04,5.85,31.63,1013.21,2038.99,3404.02,3324.00,3616.97,350.24,318.47,6.22,0000 0000 0000 0000 000000
2013-08-09 00:52:38,0.00,0.06,0.00,27.35,30.47,32.04,5.81,31.63,1013.20,2038.98,3404.00,3324.00,3616.95,349.47,317.73,6.23,0000 0000 0000 0000 000000
2013-08-09 00:53:38,0.01,0.06,0.00,27.36,30.47,32.07,5.87,31.46,1013.22,2038.99,3404.00,3323.99,3616.77,349.40,317.76,6.23,0000 0000 0000 0000 000000
2013-08-09 00:54:39,0.02,0.06,0.00,27.37,30.47,32.08,5.83,31.50,1013.21,2038.98,3404.00,3323.99,3616.71,350.13,318.77,6.24,0000 0000 0000 0000 000000
2013-08-09 00:55:39,0.00,0.06,0.00,27.35,30.47,32.09,5.82,31.63,1013.20,2038.98,3404.00,3323.99,3616.76,350.30,318.48,6.24,0000 0000 0000 0000 000000
2013-08-09 00:56:39,-0.01,0.06,0.00,27.36,30.47,32.05,5.92,31.46,1013.20,2038.97,3404.00,3323.99,3616.68,350.61,318.75,6.25,0000 0000 0000 0000 000000
2013-08-09 00:57:39,-0.00,0.06,0.00,27.38,30.48,32.06,5.86,31.46,1013.20,2038.97,3404.00,3323.98,3616.55,350.29,318.59,6.26,0000 0000 0000 0000 000000
2013-08-09 00:58:40,0.02,0.06,0.00,27.37,30.48,32.06,5.98,31.63,1013.20,2038.99,3403.97,3323.98,3616.45,350.20,318.36,6.26,0000 0000 0000 0000 000000
2013-08-09 00:59:40,0.02,0.06,0.00,27.43,30.49,32.06,5.80,31.67,1013.20,2038.98,3403.95,3323.99,3616.30,349.55,317.71,6.27,0000 0000 0000 0000 000000
2013-08-09 01:00:40,0.00,0.06,0.00,27.45,30.49,32.06,5.92,31.67,1013.20,2038.98,3403.96,3323.98,3616.29,350.35,318.22,6.27,0000 0000 0000 0000 000000
2013-08-09 01:01:40,0.00,0.06,0.00,27.44,30.50,32.12,5.80,31.54,1013.20,2038.99,3403.93,3323.96,3616.18,349.59,317.74,6.28,0000 0000 0000 0000 000000
2013-08-09 01:02:41,0.02,0.06,0.00,27.40,30.50,32.13,5.91,31.50,1013.20,2038.99,3403.71,3323.87,3616.08,349.94,318.10,6.28,0000 0000 0000 0000 000000
2013-08-09 01:03:41,0.07,0.06,0.00,27.42,30.50,32.12,5.78,31.46,1013.20,2038.97,3403.42,3323.74,3616.03,349.89,318.03,6.29,0000 0000 0000 0000 000000
2013-08-09 01:04:41,0.05,0.06,0.00,27.47,30.50,32.13,5.85,31.54,1013.20,2038.95,3403.35,3323.62,3616.01,349.96,317.62,6.30,0000 0000 0000 0000 000000
2013-08-09 01:05:41,0.01,0.06,0.00,27.47,30.50,32.13,5.77,31.25,1013.20,2038.94,3403.23,3323.55,3616.00,349.54,317.65,6.30,0000 0000 0000 0000 000000
2013-08-09 01:06:42,0.02,0.06,0.00,27.44,30.50,32.14,5.82,31.42,1013.20,2038.95,3403.10,3323.39,3616.00,350.17,317.81,6.31,0000 0000 0000 0000 000000
2013-08-09 01:07:42,0.06,0.06,0.00,27.47,30.50,32.12,5.83,31.83,1013.18,2038.96,3403.03,3323.17,3615.99,349.33,317.47,6.31,0000 0000 0000 0000 000000
2013-08-09 01:08:42,0.05,0.06,0.00,27.45,30.50,32.10,5.90,31.33,1013.19,2038.94,3403.01,3323.08,3615.98,350.19,318.38,6.32,0000 0000 0000 0000 000000
2013-08-09 01:09:42,0.01,0.06,0.00,27.43,30.50,32.13,5.81,31.67,1013.20,2038.89,3403.00,3323.05,3615.99,349.60,317.75,6.33,0000 0000 0000 0000 000000
2013-08-09 01:10:43,-0.03,0.06,0.00,27.44,30.50,32.15,6.01,31.67,1013.17,2038.89,3403.00,3323.06,3615.99,350.21,318.59,6.33,0000 0000 0000 0000 000000
2013-08-09 01:11:43,0.01,0.06,0.00,27.46,30.50,32.17,5.83,31.50,1013.11,2038.93,3403.00,3323.05,3615.99,349.60,317.99,6.34,0000 0000 0000 0000 000000
2013-08-09 01:12:43,0.03,0.06,0.00,27.49,30.52,32.16,5.98,31.50,1013.11,2038.92,3403.00,3323.04,3615.96,351.46,319.14,6.34,0000 0000 0000 0000 000000
2013-08-09 01:13:43,-0.00,0.06,0.00,27.49,30.52,32.16,5.89,31.42,1013.11,2038.88,3403.00,3323.02,3615.97,349.99,318.20,6.35,0000 0000 0000 0000 000000
2013-08-09 01:14:43,-0.03,0.06,0.00,27.48,30.52,32.15,5.78,31.50,1013.11,2038.86,3403.00,3323.01,3615.91,349.55,317.76,6.35,0000 0000 0000 0000 000000
2013-08-09 01:15:44,-0.01,0.06,0.00,27.48,30.52,32.16,5.96,31.58,1013.18,2038.84,3403.00,3323.00,3615.82,350.28,317.87,6.36,0000 0000 0000 0000 000000
2013-08-09 01:16:44,0.00,0.06,0.00,27.52,30.52,32.15,5.92,31.54,1013.20,2038.86,3402.99,3323.00,3615.70,350.54,318.06,6.37,0000 0000 0000 0000 000000
2013-08-09 01:17:44,0.03,0.06,0.00,27.56,30.52,32.14,5.96,31.46,1013.20,2038.86,3402.98,3323.00,3615.57,351.07,318.44,6.37,0000 0000 0000 0000 000000
2013-08-09 01:18:44,0.02,0.06,0.00,27.56,30.52,32.11,5.83,31.25,1013.19,2038.87,3402.99,3323.00,3615.59,350.23,317.97,6.38,0000 0000 0000 0000 000000
2013-08-09 01:19:45,0.00,0.06,0.00,27.57,30.52,32.13,5.87,31.38,1013.19,2038.85,3402.84,3323.00,3615.48,350.47,318.40,6.38,0000 0000 0000 0000 000000
2013-08-09 01:20:45,0.01,0.06,0.00,27.55,30.52,32.16,5.93,31.50,1013.18,2038.87,3402.47,3323.00,3615.30,350.90,318.81,6.39,0000 0000 0000 0000 000000
2013-08-09 01:21:45,0.09,0.06,0.00,27.51,30.53,32.15,5.96,31.54,1013.18,2038.91,3402.34,3323.00,3615.17,350.77,318.71,6.40,0000 0000 0000 0000 000000
2013-08-09 01:22:45,0.03,0.06,0.00,27.49,30.53,32.18,5.75,31.58,1013.14,2038.88,3402.31,3323.00,3615.09,349.42,317.51,6.40,0000 0000 0000 0000 000000
2013-08-09 01:23:46,-0.01,0.06,0.00,27.50,30.54,32.19,5.88,31.46,1013.15,2038.87,3402.20,3322.99,3615.07,350.65,318.49,6.41,0000 0000 0000 0000 000000
2013-08-09 01:24:46,0.01,0.06,0.00,27.50,30.55,32.18,5.89,31.67,1013.12,2038.84,3402.08,3322.99,3615.03,350.18,317.78,6.41,0000 0000 0000 0000 000000
2013-08-09 01:25:46,-0.01,0.06,0.00,27.50,30.55,32.21,5.93,31.79,1013.14,2038.87,3402.03,3322.93,3615.01,349.55,318.36,6.42,0000 0000 0000 0000 000000
2013-08-09 01:26:46,0.06,0.06,0.00,27.50,30.55,32.23,5.82,31.54,1013.15,2038.82,3402.01,3322.81,3615.00,350.15,318.08,6.42,0000 0000 0000 0000 000000
2013-08-09 01:27:47,-0.04,0.06,0.00,27.47,30.55,32.26,5.81,31.67,1013.13,2038.75,3402.00,3322.69,3615.00,349.49,317.22,6.43,0000 0000 0000 0000 000000
2013-08-09 01:28:47,0.02,0.06,0.00,27.49,30.55,32.24,5.95,31.58,1013.15,2038.70,3401.95,3322.50,3614.92,350.95,318.90,6.44,0000 0000 0000 0000 000000
2013-08-09 01:29:47,-0.01,0.06,0.00,27.50,30.55,32.27,5.85,31.58,1013.17,2038.52,3401.01,3321.29,3613.55,349.77,317.82,6.44,0000 0000 0000 0000 000000
2013-08-09 01:30:47,0.50,0.07,0.00,27.49,30.55,32.24,5.94,31.58,1013.19,2038.41,3400.26,3320.39,3612.51,350.62,318.61,6.45,0000 0000 0000 0000 000000
2013-08-09 01:31:48,0.28,0.07,0.00,27.57,30.55,32.22,5.99,31.50,1013.19,2038.46,3399.84,3320.03,3612.12,350.95,318.84,6.45,0000 0000 0000 0000 000000
2013-08-09 01:32:48,0.17,0.07,0.00,27.54,30.55,32.26,5.78,31.71,1013.19,2038.47,3399.62,3319.83,3611.89,349.49,317.52,6.46,0000 0000 0000 0000 000000
2013-08-09 01:33:48,0.10,0.07,0.00,27.54,30.56,32.26,5.91,31.67,1013.18,2038.44,3399.46,3319.60,3611.61,350.34,318.31,6.47,0000 0000 0000 0000 000000
2013-08-09 01:34:48,0.06,0.07,0.00,27.52,30.57,32.25,5.83,31.54,1013.18,2038.37,3399.35,3319.50,3611.47,350.16,317.94,6.47,0000 0000 0000 0000 000000
2013-08-09 01:35:49,0.00,0.07,0.00,27.57,30.57,32.23,5.98,31.54,1013.18,2038.36,3399.20,3319.37,3611.35,350.46,318.48,6.48,0000 0000 0000 0000 000000
2013-08-09 01:36:49,0.06,0.07,0.00,27.58,30.57,32.25,5.77,31.50,1013.18,2038.43,3399.13,3319.32,3611.28,350.14,318.22,6.48,0000 0000 0000 0000 000000
2013-08-09 01:37:49,0.11,0.07,0.00,27.54,30.57,32.23,5.91,31.71,1013.20,2038.42,3399.07,3319.18,3611.15,349.80,318.11,6.49,0000 0000 0000 0000 000000
2013-08-09 01:38:49,0.05,0.07,0.00,27.58,30.57,32.22,5.88,31.67,1013.19,2038.45,3399.03,3319.12,3611.05,350.31,318.60,6.49,0000 0000 0000 0000 000000
2013-08-09 01:39:49,0.06,0.07,0.00,27.59,30.57,32.23,5.87,31.58,1013.19,2038.43,3399.01,3319.08,3611.02,349.99,317.94,6.50,0000 0000 0000 0000 000000
2013-08-09 01:40:49,-0.10,0.07,0.00,27.54,30.57,32.25,5.68,31.54,1013.16,2038.33,3399.00,3319.03,3611.00,348.85,316.94,6.51,0000 0000 0000 0000 000000
2013-08-09 01:41:49,-0.03,0.07,0.00,27.54,30.57,32.26,5.91,31.79,1013.16,2038.33,3399.00,3319.01,3611.00,350.81,318.72,6.51,0000 0000 0000 0000 000000
2013-08-09 01:42:50,0.05,0.07,0.00,27.56,30.58,32.25,5.88,31.63,1013.18,2038.23,3398.99,3319.00,3611.00,349.71,317.71,6.52,0000 0000 0000 0000 000000
2013-08-09 01:43:50,-0.11,0.07,0.00,27.53,30.59,32.28,5.75,31.75,1013.15,2038.17,3398.95,3319.00,3611.00,349.77,317.79,6.52,0000 0000 0000 0000 000000
2013-08-09 01:44:50,-0.02,0.07,0.00,27.56,30.60,32.29,5.78,31.54,1013.11,2038.16,3398.90,3319.00,3611.00,349.63,317.62,6.53,0000 0000 0000 0000 000000
2013-08-09 01:45:50,-0.01,0.07,0.00,27.56,30.60,32.30,5.82,31.50,1013.08,2038.11,3398.80,3319.00,3611.00,350.80,318.67,6.54,0000 0000 0000 0000 000000
2013-08-09 01:46:51,-0.03,0.07,0.00,27.58,30.60,32.27,5.83,31.38,1013.02,2038.11,3398.75,3319.00,3611.00,350.25,318.13,6.54,0000 0000 0000 0000 000000
2013-08-09 01:47:51,0.01,0.07,0.00,27.58,30.60,32.27,5.92,31.33,1013.01,2038.08,3398.64,3319.00,3610.99,350.11,318.00,6.55,0000 0000 0000 0000 000000
2013-08-09 01:48:51,0.00,0.07,0.00,27.52,30.60,32.30,5.93,31.58,1013.01,2038.14,3398.35,3319.00,3610.95,349.79,317.73,6.55,0000 0000 0000 0000 000000
2013-08-09 01:49:51,0.11,0.07,0.00,27.54,30.60,32.32,5.84,31.54,1012.93,2038.13,3398.30,3318.99,3610.95,349.39,317.42,6.56,0000 0000 0000 0000 000000
2013-08-09 01:50:51,-0.04,0.07,0.00,27.58,30.60,32.38,5.73,31.67,1012.91,2038.15,3398.24,3318.96,3610.93,348.42,316.82,6.57,0000 0000 0000 0000 000000
2013-08-09 01:51:52,0.04,0.07,0.00,27.58,30.60,32.44,5.90,31.58,1012.96,2038.15,3398.15,3318.97,3610.88,350.19,318.06,6.57,0000 0000 0000 0000 000000
2013-08-09 01:52:52,0.01,0.07,0.00,27.64,30.61,32.44,5.88,31.42,1012.89,2038.16,3398.12,3318.97,3610.80,349.97,317.78,6.58,0000 0000 0000 0000 000000
2013-08-09 01:53:52,0.02,0.07,0.00,27.74,30.62,32.44,5.75,31.46,1012.92,2038.13,3398.13,3318.88,3610.60,349.49,317.24,6.58,0000 0000 0000 0000 000000
2013-08-09 01:54:52,0.00,0.07,0.00,27.77,30.62,32.45,5.88,31.58,1012.99,2038.06,3398.07,3318.70,3610.31,349.84,317.55,6.59,0000 0000 0000 0000 000000
2013-08-09 01:55:52,0.02,0.07,0.00,27.80,30.62,32.46,5.81,31.54,1013.00,2038.03,3398.03,3318.48,3610.15,350.08,317.59,6.59,0000 0000 0000 0000 000000
2013-08-09 01:56:53,0.07,0.07,0.00,27.75,30.62,32.50,5.73,31.54,1013.03,2038.02,3398.01,3318.26,3610.07,348.68,316.53,6.60,0000 0000 0000 0000 000000
2013-08-09 01:57:53,0.02,0.07,0.00,27.78,30.62,32.54,5.83,31.46,1013.10,2038.02,3398.00,3318.18,3610.03,349.76,317.43,6.61,0000 0000 0000 0000 000000
2013-08-09 01:58:53,0.01,0.07,0.00,27.78,30.62,32.58,5.93,31.58,1013.11,2038.01,3398.00,3318.15,3610.03,350.74,318.71,6.61,0000 0000 0000 0000 000000
2013-08-09 01:59:54,0.00,0.07,0.00,27.76,30.62,32.55,5.94,31.67,1013.09,2038.03,3398.00,3318.10,3610.01,349.97,317.89,6.62,0000 0000 0000 0000 000000
2013-08-09 02:00:54,0.02,0.07,0.00,27.73,30.63,32.51,5.84,31.46,1013.12,2038.04,3397.99,3318.04,3610.00,350.66,318.05,6.62,0000 0000 0000 0000 000000
2013-08-09 02:01:54,0.01,0.07,0.00,27.70,30.64,32.53,5.86,31.46,1013.13,2038.05,3397.99,3318.01,3610.00,350.82,317.97,6.63,0000 0000 0000 0000 000000
2013-08-09 02:02:54,0.02,0.07,0.00,27.73,30.65,32.55,5.85,31.67,1013.17,2038.02,3397.98,3318.00,3610.00,349.31,317.17,6.64,0000 0000 0000 0000 000000
2013-08-09 02:03:55,-0.02,0.07,0.00,27.79,30.65,32.58,5.93,31.42,1013.18,2038.00,3397.91,3318.00,3610.00,350.88,318.54,6.64,0000 0000 0000 0000 000000
2013-08-09 02:04:55,0.00,0.07,0.00,27.79,30.65,32.59,5.96,31.67,1013.20,2038.00,3397.91,3318.00,3610.00,350.49,318.18,6.65,0000 0000 0000 0000 000000
2013-08-09 02:05:55,0.01,0.07,0.00,27.77,30.65,32.60,5.73,31.38,1013.17,2038.00,3397.68,3318.00,3609.94,350.03,317.73,6.65,0000 0000 0000 0000 000000
2013-08-09 02:06:55,0.05,0.07,0.00,27.78,30.65,32.59,5.80,31.38,1013.15,2038.01,3397.28,3317.92,3609.49,349.36,317.16,6.66,0000 0000 0000 0000 000000
2013-08-09 02:07:56,0.13,0.07,0.00,27.81,30.65,32.59,5.85,31.46,1013.10,2038.01,3397.11,3317.68,3609.18,350.50,318.14,6.66,0000 0000 0000 0000 000000
2013-08-09 02:08:56,0.10,0.08,0.00,27.78,30.66,32.60,5.70,31.33,1013.02,2038.01,3397.04,3317.39,3609.06,348.49,316.59,6.67,0000 0000 0000 0000 000000
2013-08-09 02:09:56,0.07,0.08,0.00,27.79,30.67,32.62,5.85,31.58,1013.04,2038.00,3397.00,3317.22,3609.02,349.49,317.19,6.68,0000 0000 0000 0000 000000
2013-08-09 02:10:57,0.03,0.08,0.00,27.87,30.67,32.62,5.85,31.46,1013.04,2038.00,3396.99,3317.14,3609.00,350.37,317.94,6.68,0000 0000 0000 0000 000000
2013-08-09 02:11:57,0.01,0.08,0.00,27.92,30.67,32.64,5.73,31.33,1012.99,2038.00,3396.99,3317.08,3609.00,350.10,317.63,6.69,0000 0000 0000 0000 000000
2013-08-09 02:12:57,0.01,0.08,0.00,27.87,30.67,32.67,5.86,31.50,1012.97,2038.00,3396.99,3317.05,3609.00,350.31,317.37,6.69,0000 0000 0000 0000 000000
2013-08-09 02:13:57,0.01,0.08,0.00,27.92,30.67,32.70,5.92,31.42,1013.05,2038.00,3396.95,3317.02,3608.98,350.21,317.28,6.70,0000 0000 0000 0000 000000
2013-08-09 02:14:57,0.01,0.08,0.00,27.98,30.68,32.69,5.88,31.50,1013.05,2038.00,3396.93,3317.00,3608.94,350.57,318.01,6.71,0000 0000 0000 0000 000000
2013-08-09 02:15:57,-0.00,0.08,0.00,27.97,30.68,32.70,5.88,31.54,1013.15,2038.00,3396.96,3317.01,3608.97,350.18,317.19,6.71,0000 0000 0000 0000 000000
2013-08-09 02:16:58,-0.01,0.08,0.00,27.94,30.70,32.72,5.84,31.71,1013.10,2038.00,3396.92,3317.00,3608.96,349.53,317.45,6.72,0000 0000 0000 0000 000000
2013-08-09 02:17:58,0.01,0.08,0.00,27.95,30.70,32.74,5.88,31.54,1013.11,2038.00,3396.68,3317.00,3608.69,349.66,317.54,6.72,0000 0000 0000 0000 000000
2013-08-09 02:18:58,0.06,0.08,0.00,27.93,30.70,32.75,5.88,31.46,1013.15,2038.00,3396.30,3316.94,3608.35,349.84,317.43,6.73,0000 0000 0000 0000 000000
2013-08-09 02:19:58,0.11,0.08,0.00,27.91,30.70,32.73,5.92,31.38,1013.12,2038.00,3396.11,3316.83,3608.13,350.49,318.13,6.73,0000 0000 0000 0000 000000
2013-08-09 02:20:59,0.07,0.08,0.00,27.97,30.70,32.71,5.86,31.42,1013.05,2038.00,3396.04,3316.56,3608.05,350.31,317.88,6.74,0000 0000 0000 0000 000000
2013-08-09 02:21:59,0.07,0.08,0.00,27.95,30.71,32.71,5.97,31.50,1013.06,2038.00,3396.01,3316.39,3608.02,349.61,317.27,6.75,0000 0000 0000 0000 000000
2013-08-09 02:22:59,0.04,0.08,0.00,27.93,30.72,32.74,5.90,31.63,1013.10,2037.99,3396.00,3316.30,3608.00,350.24,317.33,6.75,0000 0000 0000 0000 000000
2013-08-09 02:23:59,0.01,0.08,0.00,27.91,30.72,32.73,5.82,31.46,1013.04,2037.98,3395.98,3316.23,3608.00,350.54,317.99,6.76,0000 0000 0000 0000 000000
2013-08-09 02:24:59,0.01,0.08,0.00,27.96,30.72,32.78,5.85,31.50,1013.11,2037.99,3395.97,3316.10,3608.00,349.89,317.43,6.76,0000 0000 0000 0000 000000
2013-08-09 02:26:00,0.04,0.08,0.00,27.95,30.72,32.77,5.83,31.38,1013.13,2037.98,3395.87,3316.04,3607.99,350.60,318.08,6.77,0000 0000 0000 0000 000000
2013-08-09 02:27:00,0.02,0.08,0.00,27.94,30.72,32.76,5.81,31.54,1013.12,2037.98,3395.58,3316.01,3607.95,349.97,317.53,6.78,0000 0000 0000 0000 000000
2013-08-09 02:28:00,0.05,0.08,0.00,27.97,30.73,32.75,5.88,31.42,1013.08,2037.99,3395.28,3316.00,3607.93,349.76,317.30,6.78,0000 0000 0000 0000 000000
2013-08-09 02:29:00,0.05,0.08,0.00,27.92,30.74,32.76,5.87,31.25,1013.05,2037.99,3395.15,3316.00,3607.87,349.94,317.49,6.79,0000 0000 0000 0000 000000
2013-08-09 02:30:01,0.02,0.08,0.00,27.92,30.75,32.75,5.89,31.50,1013.01,2037.97,3395.08,3316.00,3607.54,350.15,317.50,6.79,0000 0000 0000 0000 000000
2013-08-09 02:31:01,0.02,0.08,0.00,27.92,30.75,32.78,5.84,31.58,1013.05,2037.96,3395.04,3316.00,3607.27,350.51,318.17,6.80,0000 0000 0000 0000 000000
2013-08-09 02:32:01,0.02,0.08,0.00,27.92,30.75,32.79,5.90,31.54,1013.06,2037.92,3395.01,3316.00,3607.12,350.88,318.36,6.81,0000 0000 0000 0000 000000
2013-08-09 02:33:01,-0.00,0.08,0.00,27.92,30.75,32.78,5.85,31.63,1013.01,2037.90,3395.00,3315.98,3607.06,349.86,317.71,6.81,0000 0000 0000 0000 000000
2013-08-09 02:34:01,-0.01,0.08,0.00,27.92,30.75,32.77,5.73,31.42,1013.00,2037.94,3395.00,3315.96,3607.05,349.51,316.76,6.82,0000 0000 0000 0000 000000
2013-08-09 02:35:02,0.04,0.08,0.00,27.93,30.77,32.79,5.88,31.46,1013.04,2037.95,3395.00,3315.96,3607.03,350.29,317.80,6.82,0000 0000 0000 0000 000000
2013-08-09 02:36:02,0.00,0.08,0.00,27.94,30.77,32.82,5.90,31.54,1013.07,2037.96,3394.99,3315.95,3607.00,350.93,318.38,6.83,0000 0000 0000 0000 000000
2013-08-09 02:37:02,0.02,0.08,0.00,27.90,30.77,32.81,5.65,31.58,1013.07,2037.97,3394.98,3315.91,3607.00,349.23,316.71,6.83,0000 0000 0000 0000 000000